This is the latest recevied weather packets stored in our database for station/object VK4HIT-13. If no packets are shown the sender has not sent any weather packets the latest 1 day(s).
| Time | Temp. | Humidity | Pressure | Rain* | Wind** | Luminosity | Snow |
|---|---|---|---|---|---|---|---|
| 1777990170 | 20° C | 88% | 1018 hPa | 0 mm | 1.79 m/s, 31° | - | - |
| 1777989870 | 20.56° C | 87% | 1018 hPa | 0 mm | 0.89 m/s, 30° | - | - |
| 1777989571 | 20.56° C | 88% | 1017.9 hPa | 0 mm | 0.89 m/s, 30° | - | - |
| 1777989270 | 20.56° C | 88% | 1017.9 hPa | 0 mm | 1.34 m/s, 30° | - | - |
| 1777988970 | 20.56° C | 88% | 1017.9 hPa | 0 mm | 1.34 m/s, 29° | - | - |
| 1777988670 | 20.56° C | 88% | 1018 hPa | 0 mm | 1.79 m/s, 29° | - | - |
| 1777988370 | 20.56° C | 88% | 1017.9 hPa | 0 mm | 1.79 m/s, 31° | - | - |
| 1777988070 | 20.56° C | 87% | 1018 hPa | 0 mm | 2.24 m/s, 22° | - | - |
| 1777987770 | 20.56° C | 87% | 1018 hPa | 0 mm | 2.24 m/s, 28° | - | - |
| 1777987470 | 20.56° C | 87% | 1018 hPa | 0 mm | 1.79 m/s, 24° | - | - |
| 1777987170 | 20.56° C | 87% | 1018.1 hPa | 0 mm | 1.79 m/s, 23° | - | - |
| 1777986870 | 20.56° C | 87% | 1018 hPa | 0 mm | 1.34 m/s, 24° | - | - |
| 1777986570 | 20.56° C | 87% | 1018 hPa | 0 mm | 1.34 m/s, 26° | - | - |
| 1777986270 | 20.56° C | 86% | 1018.1 hPa | 0 mm | 1.34 m/s, 21° | - | - |
| 1777985970 | 20.56° C | 86% | 1017.9 hPa | 0 mm | 1.34 m/s, 23° | - | - |
| 1777985670 | 20.56° C | 86% | 1017.9 hPa | 0 mm | 1.34 m/s, 24° | - | - |
| 1777985370 | 20.56° C | 85% | 1017.8 hPa | 0 mm | 1.34 m/s, 20° | - | - |
| 1777985070 | 20.56° C | 85% | 1017.8 hPa | 0 mm | 1.34 m/s, 22° | - | - |
| 1777984770 | 20.56° C | 85% | 1017.9 hPa | 0 mm | 1.34 m/s, 26° | - | - |
| 1777984470 | 20.56° C | 85% | 1017.7 hPa | 0 mm | 1.79 m/s, 21° | - | - |
| 1777984170 | 20.56° C | 85% | 1017.7 hPa | 0 mm | 1.79 m/s, 24° | - | - |
| 1777983870 | 20.56° C | 85% | 1017.6 hPa | 0 mm | 1.79 m/s, 23° | - | - |
| 1777983570 | 20.56° C | 85% | 1017.7 hPa | 0 mm | 1.79 m/s, 24° | - | - |
| 1777983270 | 20.56° C | 85% | 1017.7 hPa | 0 mm | 0.89 m/s, 23° | - | - |
| 1777982970 | 20.56° C | 85% | 1017.8 hPa | 0 mm | 0.45 m/s, 24° | - | - |
* Rain latest hour (hover to see other rain measurements)
** Current wind speed in m/s (hover to see current wind gust speed)